When you browse on this site, cookies collect data to enhance your experience and personalize the content and advertising you see.
Visit our Privacy Policy to learn more. By continuing to use the site, you agree to this use of cookies and data.
  • In Deutschland
  • Länderverzeichnis
  • Für 7 Tage
  • Wassertemperatur
  • Wetterkarte
  • Widgets
  • user-avatar
    Anmelden

    Stündliche Wetter Burgas

    Heute, 26 Mai, Dienstag

    Zeit Temperatur Niederschläge Wind Luftdruck Luftfeuchtigkeit
    00:00 +11°C° 0 mm 1 m/S 763 mmHg 87%
    01:00 +10°C° 0 mm 2 m/S 763 mmHg 87%
    02:00 +10°C° 0 mm 2 m/S 763 mmHg 87%
    03:00 +10°C° 0 mm 2 m/S 763 mmHg 87%
    04:00 +10°C° 0 mm 2 m/S 763 mmHg 87%
    05:00 +9°C° 0 mm 2 m/S 763 mmHg 87%
    06:00 +12°C° 0 mm 2 m/S 763 mmHg 83%
    07:00 +14°C° 0 mm 2 m/S 763 mmHg 78%
    08:00 +16°C° 0 mm 2 m/S 763 mmHg 71%
    09:00 +17°C° 0.3 mm 3 m/S 763 mmHg 69%
    10:00 +18°C° 0.3 mm 3 m/S 762 mmHg 67%
    11:00 +19°C° 0.3 mm 3 m/S 762 mmHg 64%
    12:00 +19°C° 0.4 mm 3 m/S 762 mmHg 64%
    13:00 +19°C° 0.4 mm 4 m/S 762 mmHg 64%
    14:00 +19°C° 0.4 mm 4 m/S 762 mmHg 63%
    15:00 +19°C° 0.1 mm 4 m/S 762 mmHg 64%
    16:00 +18°C° 0.1 mm 4 m/S 762 mmHg 65%
    17:00 +18°C° 0.1 mm 4 m/S 761 mmHg 67%
    18:00 +16°C° 0 mm 3 m/S 762 mmHg 74%
    19:00 +15°C° 0 mm 2 m/S 762 mmHg 81%
    20:00 +13°C° 0 mm 2 m/S 762 mmHg 88%
    21:00 +12°C° 0 mm 2 m/S 762 mmHg 88%
    22:00 +12°C° 0 mm 1 m/S 762 mmHg 89%
    23:00 +11°C° 0 mm 1 m/S 762 mmHg 90%

    Morgen, 27 Mai, Mittwoch

    Zeit Temperatur Niederschläge Wind Luftdruck Luftfeuchtigkeit
    00:00 +11°C° 0 mm 1 m/S 762 mmHg 90%
    01:00 +11°C° 0 mm 1 m/S 762 mmHg 90%
    02:00 +11°C° 0 mm 1 m/S 762 mmHg 90%
    03:00 +11°C° 0 mm 1 m/S 762 mmHg 90%
    04:00 +9°C° 0 mm 2 m/S 762 mmHg 90%
    05:00 +9°C° 0 mm 2 m/S 762 mmHg 89%
    06:00 +12°C° 0 mm 2 m/S 762 mmHg 84%
    07:00 +14°C° 0 mm 2 m/S 762 mmHg 78%
    08:00 +16°C° 0 mm 3 m/S 762 mmHg 72%
    09:00 +17°C° 0.2 mm 4 m/S 762 mmHg 69%
    10:00 +18°C° 0.2 mm 4 m/S 762 mmHg 67%
    11:00 +19°C° 0.2 mm 5 m/S 762 mmHg 64%
    12:00 +19°C° 0.6 mm 5 m/S 762 mmHg 67%
    13:00 +19°C° 0.6 mm 5 m/S 762 mmHg 69%
    14:00 +19°C° 0.6 mm 5 m/S 761 mmHg 72%
    15:00 +18°C° 0.6 mm 4 m/S 761 mmHg 75%
    16:00 +18°C° 0.6 mm 4 m/S 761 mmHg 78%
    17:00 +17°C° 0.6 mm 3 m/S 761 mmHg 81%
    18:00 +16°C° 0.2 mm 2 m/S 761 mmHg 84%
    19:00 +14°C° 0.2 mm 1 m/S 761 mmHg 88%
    20:00 +13°C° 0.2 mm 1 m/S 761 mmHg 91%
    21:00 +13°C° 0.1 mm 1 m/S 761 mmHg 91%
    22:00 +13°C° 0.1 mm 1 m/S 761 mmHg 92%
    23:00 +12°C° 0.1 mm 2 m/S 761 mmHg 92%

    übermorgen, 28 Mai, Donnerstag

    Zeit Temperatur Niederschläge Wind Luftdruck Luftfeuchtigkeit
    00:00 +12°C° 0 mm 2 m/S 761 mmHg 92%
    01:00 +12°C° 0 mm 2 m/S 761 mmHg 93%
    02:00 +12°C° 0 mm 2 m/S 761 mmHg 93%
    03:00 +10°C° 0.1 mm 2 m/S 761 mmHg 94%
    04:00 +10°C° 0.1 mm 2 m/S 761 mmHg 94%
    05:00 +10°C° 0.1 mm 2 m/S 761 mmHg 94%
    06:00 +12°C° 0.1 mm 3 m/S 761 mmHg 91%
    07:00 +13°C° 0.1 mm 3 m/S 761 mmHg 87%
    08:00 +16°C° 0.1 mm 3 m/S 761 mmHg 84%
    09:00 +17°C° 0.5 mm 4 m/S 761 mmHg 80%
    10:00 +18°C° 0.5 mm 4 m/S 760 mmHg 76%
    11:00 +19°C° 0.5 mm 4 m/S 760 mmHg 72%
    12:00 +19°C° 0.8 mm 3 m/S 760 mmHg 71%
    13:00 +20°C° 0.8 mm 3 m/S 759 mmHg 70%
    14:00 +20°C° 0.8 mm 2 m/S 759 mmHg 69%
    15:00 +20°C° 0.5 mm 2 m/S 759 mmHg 68%
    16:00 +20°C° 0.5 mm 2 m/S 759 mmHg 68%
    17:00 +21°C° 0.5 mm 1 m/S 758 mmHg 68%
    18:00 +19°C° 0.3 mm 1 m/S 758 mmHg 73%
    19:00 +18°C° 0.3 mm 1 m/S 758 mmHg 77%
    20:00 +15°C° 0.3 mm 1 m/S 759 mmHg 82%
    21:00 +15°C° 0 mm 1 m/S 759 mmHg 83%
    22:00 +14°C° 0 mm 2 m/S 759 mmHg 84%
    23:00 +13°C° 0 mm 2 m/S 759 mmHg 85%

    29 Mai, Freitag

    Zeit Temperatur Niederschläge Wind Luftdruck Luftfeuchtigkeit
    00:00 +13°C° 0 mm 2 m/S 759 mmHg 86%
    01:00 +13°C° 0 mm 2 m/S 758 mmHg 87%
    02:00 +12°C° 0 mm 2 m/S 758 mmHg 88%
    03:00 +12°C° 0 mm 2 m/S 758 mmHg 89%
    04:00 +12°C° 0 mm 2 m/S 758 mmHg 89%
    05:00 +12°C° 0 mm 2 m/S 758 mmHg 90%
    06:00 +12°C° 0 mm 3 m/S 759 mmHg 86%
    07:00 +14°C° 0 mm 3 m/S 759 mmHg 83%
    08:00 +17°C° 0 mm 3 m/S 759 mmHg 80%
    09:00 +18°C° 0.7 mm 4 m/S 759 mmHg 79%
    10:00 +18°C° 0.7 mm 4 m/S 759 mmHg 77%
    11:00 +19°C° 0.7 mm 4 m/S 759 mmHg 76%
    12:00 +20°C° 0.8 mm 3 m/S 758 mmHg 73%
    13:00 +20°C° 0.8 mm 2 m/S 758 mmHg 69%
    14:00 +21°C° 0.8 mm 1 m/S 758 mmHg 66%
    15:00 +21°C° 0.8 mm 1 m/S 758 mmHg 68%
    16:00 +21°C° 0.8 mm 1 m/S 758 mmHg 71%
    17:00 +20°C° 0.8 mm 1 m/S 758 mmHg 73%
    18:00 +19°C° 0.5 mm 1 m/S 758 mmHg 77%
    19:00 +18°C° 0.5 mm 1 m/S 758 mmHg 80%
    20:00 +15°C° 0.5 mm 1 m/S 758 mmHg 84%
    21:00 +15°C° 0.1 mm 1 m/S 758 mmHg 86%
    22:00 +15°C° 0.1 mm 2 m/S 758 mmHg 87%
    23:00 +14°C° 0.1 mm 2 m/S 759 mmHg 88%

    30 Mai, Samstag

    Zeit Temperatur Niederschläge Wind Luftdruck Luftfeuchtigkeit
    00:00 +14°C° 0 mm 2 m/S 758 mmHg 88%
    01:00 +13°C° 0 mm 2 m/S 758 mmHg 88%
    02:00 +13°C° 0 mm 2 m/S 758 mmHg 88%
    03:00 +13°C° 0 mm 2 m/S 758 mmHg 89%
    04:00 +13°C° 0 mm 2 m/S 758 mmHg 89%
    05:00 +13°C° 0 mm 2 m/S 759 mmHg 89%
    06:00 +14°C° 0 mm 2 m/S 759 mmHg 87%
    07:00 +15°C° 0 mm 2 m/S 759 mmHg 84%
    08:00 +16°C° 0 mm 2 m/S 759 mmHg 81%
    09:00 +17°C° 0 mm 2 m/S 759 mmHg 74%
    10:00 +19°C° 0 mm 2 m/S 759 mmHg 68%
    11:00 +20°C° 0 mm 2 m/S 759 mmHg 62%
    12:00 +20°C° 0.5 mm 2 m/S 759 mmHg 66%
    13:00 +19°C° 0.5 mm 2 m/S 759 mmHg 69%
    14:00 +19°C° 0.5 mm 2 m/S 759 mmHg 73%
    15:00 +18°C° 1.2 mm 2 m/S 758 mmHg 80%
    16:00 +17°C° 1.2 mm 2 m/S 758 mmHg 87%
    17:00 +16°C° 1.2 mm 2 m/S 758 mmHg 93%
    18:00 +15°C° 0.8 mm 1 m/S 758 mmHg 94%
    19:00 +15°C° 0.8 mm 1 m/S 758 mmHg 94%
    20:00 +14°C° 0.8 mm 1 m/S 758 mmHg 95%
    21:00 +14°C° 0.2 mm 2 m/S 759 mmHg 94%
    22:00 +13°C° 0.2 mm 2 m/S 759 mmHg 94%
    23:00 +12°C° 0.2 mm 2 m/S 759 mmHg 94%

    31 Mai, Sonntag

    Zeit Temperatur Niederschläge Wind Luftdruck Luftfeuchtigkeit
    00:00 +12°C° 0 mm 2 m/S 759 mmHg 93%
    01:00 +10°C° 0 mm 2 m/S 759 mmHg 93%
    02:00 +9°C° 0 mm 2 m/S 759 mmHg 92%
    03:00 +9°C° 0 mm 2 m/S 759 mmHg 92%
    04:00 +9°C° 0 mm 2 m/S 759 mmHg 91%
    05:00 +9°C° 0 mm 2 m/S 759 mmHg 91%
    06:00 +12°C° 0 mm 2 m/S 759 mmHg 87%
    07:00 +13°C° 0 mm 3 m/S 759 mmHg 83%
    08:00 +16°C° 0 mm 3 m/S 760 mmHg 79%
    09:00 +17°C° 0 mm 3 m/S 760 mmHg 73%
    10:00 +18°C° 0 mm 4 m/S 760 mmHg 67%
    11:00 +19°C° 0 mm 4 m/S 760 mmHg 61%
    12:00 +20°C° 0 mm 4 m/S 760 mmHg 59%
    13:00 +21°C° 0 mm 3 m/S 759 mmHg 58%
    14:00 +21°C° 0 mm 3 m/S 759 mmHg 57%
    15:00 +21°C° 0.1 mm 3 m/S 759 mmHg 60%
    16:00 +21°C° 0.1 mm 2 m/S 759 mmHg 63%
    17:00 +21°C° 0.1 mm 2 m/S 759 mmHg 66%
    18:00 +19°C° 0.1 mm 2 m/S 759 mmHg 71%
    19:00 +18°C° 0.1 mm 1 m/S 759 mmHg 77%
    20:00 +15°C° 0.1 mm 1 m/S 759 mmHg 82%
    21:00 +15°C° 0 mm 1 m/S 759 mmHg 83%
    22:00 +14°C° 0 mm 1 m/S 759 mmHg 84%
    23:00 +14°C° 0 mm 1 m/S 759 mmHg 85%
    Mehr zeigen